This demonstration page uses our WeatherBlox Daily Observations layout. Learn more.

Left ArrowRight Arrow

41.55636, -103.73856

Hourly Observations for May 2, 2020

Temp ( °F °C ) Dew Point ( °F °C ) Humidity (%) Winds ( mph kmh ) Pressure ( in mb ) Visibility ( mi km ) Precip ( " mm )
6:58 pm 18:58 Mostly Cloudy 57 13.8 53 11.5 86 86 ENE 16 26 29.93 1014 10 16 0.02 0.51
7:58 pm 19:58 Mostly Cloudy with Light Showers 56 13.2 52 11 87 87 S 6 9 30.00 1016 10 16 0.00 0.00
8:58 pm 20:58 Mostly Cloudy 54 12.1 51 10.6 91 91 E 12 19 29.95 1014 10 16 0.07 1.78
9:58 pm 21:58 Mostly Cloudy 52 10.9 49 9.2 89 89 E 6 9 29.99 1016 10 16 0.00 0.00
10:58 pm 22:58 Mostly Cloudy 51 10.5 49 9.4 93 93 N 3 6 30.01 1016 10 16 0.00 0.00
11:58 pm 23:58 Cloudy with Light Showers 52 11.3 50 10.1 92 92 ENE 7 11 30.04 1017 10 16 0.02 0.51
12:58 am 00:58 Cloudy with Showers 51 10.3 49 9.5 95 95 ENE 13 20 30.03 1017 9 14 0.20 5.08
1:58 am 01:58 Mostly Cloudy 50 9.8 48 9.1 95 95 E 5 7 30.03 1017 10 16 0.00 0.00
2:58 am 02:58 Cloudy 50 9.9 48 9.1 95 95 ESE 5 7 30.01 1016 10 16 0.00 0.00
3:58 am 03:58 Cloudy with Light Rain 50 10.2 48 9.1 93 93 Calm 30.03 1017 10 16 0.00 0.00
4:58 am 04:58 Cloudy with Light Showers 50 10.2 49 9.2 94 94 N 6 9 30.05 1018 10 16 0.00 0.00
5:58 am 05:58 Mostly Cloudy 50 10 48 9.1 94 94 Calm 30.06 1018 10 16 0.00 0.00
6:58 am 06:58 Mostly Cloudy with Light Showers 50 9.9 48 9 94 94 ESE 8 13 30.08 1019 10 16 0.02 0.51
7:58 am 07:58 Mostly Cloudy with Heavy Showers 50 10 48 9.1 94 94 N 8 13 30.14 1021 4 6 0.09 2.29
8:58 am 08:58 Cloudy with Rain 50 9.8 48 9.1 95 95 ESE 9 15 30.11 1020 7 11 0.15 3.81
9:58 am 09:58 Mostly Cloudy 51 10.4 49 9.5 94 94 ESE 9 15 30.14 1021 10 16 0.02 0.51
10:58 am 10:58 Cloudy with Light Showers 50 10 49 9.3 95 95 ESE 10 17 30.14 1021 7 11 0.03 0.76
11:58 am 11:58 Cloudy 51 10.3 49 9.4 94 94 SE 14 22 30.12 1020 10 16 0.01 0.25
12:58 pm 12:58 Cloudy 51 10.6 49 9.5 93 93 SE 14 22 30.10 1019 10 16 0.00 0.00
1:58 pm 13:58 Cloudy 52 11.3 50 10.1 92 92 SE 16 26 30.09 1019 10 16 0.00 0.00
2:58 pm 14:58 Cloudy 52 10.9 49 9.5 91 91 SE 15 24 30.08 1019 10 16 0.00 0.00
3:58 pm 15:58 Cloudy 52 11.2 50 9.8 91 91 SE 14 22 30.05 1018 10 16 0.00 0.00
4:58 pm 16:58 Cloudy with Light Rain 50 10.2 49 9.4 95 95 E 12 19 30.08 1019 8 13 0.00 0.00
5:58 pm 17:58 Mostly Cloudy with Heavy Rain 49 9.7 48 9 95 95 E 9 15 30.10 1019 1 2 0.30 7.62

Powered by AerisWeather